DKFGT LIPB-EDMK

Flight info

Callsign DKFGT
Flight time 1h 9m
Altitude 9000
Route DCT BR DCT LOWIS DCT N2 DCT
Aircraft DV20/L-V/L

Departure

Time 2026-05-06 18:05
Airport Bolzano Airport (LIPB)

Arrival

Time 2026-05-06 19:15
Airport Kempten-Durach Airfield (EDMK)
Time Latitude Longitude Altitude Speed Heading
2026-05-06 18:05 46.46237 11.31700 1935 ft 80 kts
2026-05-06 18:05 46.46767 11.31824 2200 ft 70 kts
2026-05-06 18:06 46.47212 11.31867 2459 ft 61 kts
2026-05-06 18:06 46.47642 11.31834 2635 ft 63 kts 356°
2026-05-06 18:06 46.48075 11.31753 2810 ft 61 kts 352°
2026-05-06 18:06 46.48499 11.31865 2974 ft 62 kts 28°
2026-05-06 18:07 46.48871 11.32126 3179 ft 56 kts 23°
2026-05-06 18:07 46.49249 11.32282 3347 ft 58 kts 16°
2026-05-06 18:07 46.49576 11.32405 3516 ft 56 kts 11°
2026-05-06 18:07 46.49612 11.32415 3528 ft 57 kts 10°
2026-05-06 18:09 46.49767 11.32445 3572 ft 60 kts
2026-05-06 18:09 46.50167 11.32338 3743 ft 61 kts 327°
2026-05-06 18:09 46.50415 11.31871 3927 ft 61 kts 286°
2026-05-06 18:09 46.50338 11.31332 4170 ft 55 kts 230°
2026-05-06 18:10 46.50600 11.31020 4249 ft 85 kts 19°
2026-05-06 18:10 46.51013 11.31560 4508 ft 77 kts 57°
2026-05-06 18:10 46.51293 11.32239 4746 ft 78 kts 66°
2026-05-06 18:10 46.51531 11.32954 4983 ft 81 kts 62°
2026-05-06 18:11 46.51946 11.33555 5113 ft 87 kts 38°
2026-05-06 18:11 46.52311 11.33849 5195 ft 94 kts 26°
2026-05-06 18:11 46.53122 11.34131 5509 ft 85 kts
2026-05-06 18:11 46.53517 11.34188 5624 ft 80 kts
2026-05-06 18:12 46.54260 11.34185 5911 ft 79 kts 348°
2026-05-06 18:12 46.54823 11.34052 6042 ft 87 kts 350°
2026-05-06 18:12 46.55406 11.33973 6158 ft 87 kts 356°
2026-05-06 18:12 46.56008 11.33936 6279 ft 87 kts
2026-05-06 18:13 46.56992 11.34393 6562 ft 90 kts 36°
2026-05-06 18:13 46.57500 11.34863 6789 ft 86 kts 37°
2026-05-06 18:13 46.58020 11.35260 6928 ft 91 kts 16°
2026-05-06 18:14 46.58590 11.35155 7122 ft 84 kts 321°
2026-05-06 18:14 46.59141 11.34969 7203 ft 96 kts 17°
2026-05-06 18:14 46.59798 11.35114 7322 ft 100 kts 10°
2026-05-06 18:14 46.60461 11.35319 7552 ft 96 kts 11°
2026-05-06 18:15 46.61143 11.35447 7575 ft 101 kts
2026-05-06 18:15 46.61831 11.35568 7658 ft 100 kts
2026-05-06 18:15 46.62494 11.35795 7728 ft 98 kts 20°
2026-05-06 18:15 46.63140 11.36075 7845 ft 99 kts 15°
2026-05-06 18:16 46.63814 11.36284 8010 ft 95 kts
2026-05-06 18:16 46.64499 11.36435 8108 ft 101 kts
2026-05-06 18:16 46.65183 11.36622 8257 ft 98 kts 10°
2026-05-06 18:16 46.65852 11.36838 8357 ft 101 kts 13°
2026-05-06 18:17 46.66534 11.37114 8431 ft 107 kts 16°
2026-05-06 18:17 46.67264 11.37371 8483 ft 111 kts
2026-05-06 18:17 46.68037 11.37557 8602 ft 110 kts
2026-05-06 18:17 46.68787 11.37755 8695 ft 111 kts
2026-05-06 18:18 46.69526 11.37821 8909 ft 102 kts 360°
2026-05-06 18:18 46.70231 11.37880 9122 ft 98 kts
2026-05-06 18:18 46.70917 11.37919 9306 ft 99 kts 356°
2026-05-06 18:18 46.71631 11.37949 9262 ft 111 kts 358°
2026-05-06 18:19 46.72421 11.38085 9320 ft 116 kts
2026-05-06 18:19 46.73244 11.38240 9221 ft 123 kts
2026-05-06 18:19 46.74079 11.38421 9293 ft 114 kts
2026-05-06 18:19 46.74877 11.38560 9272 ft 122 kts
2026-05-06 18:20 46.75681 11.38803 9302 ft 122 kts 15°
2026-05-06 18:20 46.76448 11.39170 9303 ft 110 kts 20°
2026-05-06 18:20 46.77176 11.39642 9265 ft 117 kts 32°
2026-05-06 18:20 46.78003 11.39985 9121 ft 126 kts
2026-05-06 18:21 46.78851 11.40255 9195 ft 122 kts 11°
2026-05-06 18:21 46.79675 11.40535 9305 ft 119 kts 11°
2026-05-06 18:21 46.80445 11.40892 9336 ft 115 kts 25°
2026-05-06 18:21 46.81186 11.41355 9396 ft 114 kts 22°
2026-05-06 18:22 46.81908 11.41815 9494 ft 113 kts 24°
2026-05-06 18:22 46.82719 11.42164 9274 ft 123 kts 13°
2026-05-06 18:22 46.83562 11.42429 9199 ft 128 kts 11°
2026-05-06 18:22 46.84393 11.42734 9224 ft 121 kts 23°
2026-05-06 18:23 46.85239 11.42929 9032 ft 126 kts 353°
2026-05-06 18:23 46.86069 11.43143 9002 ft 124 kts 27°
2026-05-06 18:23 46.86871 11.43623 8949 ft 125 kts 22°
2026-05-06 18:23 46.87685 11.44052 8911 ft 122 kts 21°
2026-05-06 18:24 46.88468 11.44430 9019 ft 115 kts 12°
2026-05-06 18:24 46.89232 11.44624 9144 ft 107 kts
2026-05-06 18:24 46.89995 11.44678 9093 ft 118 kts
2026-05-06 18:24 46.90846 11.44864 9055 ft 125 kts 10°
2026-05-06 18:25 46.91663 11.45178 9077 ft 120 kts 15°
2026-05-06 18:25 46.92479 11.45470 9069 ft 122 kts 13°
2026-05-06 18:25 46.93289 11.45737 9138 ft 119 kts 12°
2026-05-06 18:25 46.94113 11.46044 9106 ft 122 kts 19°
2026-05-06 18:26 46.94895 11.46476 9121 ft 118 kts 24°
2026-05-06 18:26 46.95633 11.46943 9196 ft 110 kts 20°
2026-05-06 18:26 46.96342 11.47400 9184 ft 113 kts 26°
2026-05-06 18:26 46.97060 11.47875 9109 ft 118 kts 23°
2026-05-06 18:27 46.97826 11.48357 9030 ft 118 kts 24°
2026-05-06 18:27 46.98562 11.48841 9115 ft 115 kts 25°
2026-05-06 18:27 46.99288 11.49336 9104 ft 118 kts 25°
2026-05-06 18:27 47.00050 11.49812 9108 ft 120 kts 18°
2026-05-06 18:28 47.00908 11.49918 8968 ft 126 kts 355°
2026-05-06 18:28 47.01757 11.49849 8914 ft 125 kts 352°
2026-05-06 18:28 47.02613 11.49662 8714 ft 127 kts 345°
2026-05-06 18:28 47.03528 11.49284 8361 ft 133 kts 339°
2026-05-06 18:29 47.04362 11.48876 7932 ft 125 kts 339°
2026-05-06 18:29 47.05159 11.48516 7618 ft 115 kts 339°
2026-05-06 18:29 47.05945 11.48121 7090 ft 124 kts 337°
2026-05-06 18:29 47.06768 11.47687 6687 ft 124 kts 338°
2026-05-06 18:30 47.07588 11.47271 6197 ft 124 kts 343°
2026-05-06 18:30 47.08390 11.46926 5844 ft 113 kts 344°
2026-05-06 18:30 47.09153 11.46601 5530 ft 113 kts 345°
2026-05-06 18:30 47.09859 11.46327 5432 ft 99 kts 346°
2026-05-06 18:31 47.10496 11.46081 5377 ft 94 kts 347°
2026-05-06 18:31 47.11122 11.45882 5371 ft 94 kts 348°
2026-05-06 18:31 47.11793 11.45708 5288 ft 98 kts 348°
2026-05-06 18:31 47.12489 11.45495 5235 ft 102 kts 347°
2026-05-06 18:32 47.13172 11.45324 5280 ft 98 kts 351°
2026-05-06 18:32 47.13867 11.45130 5361 ft 103 kts 349°
2026-05-06 18:32 47.14595 11.44877 5427 ft 113 kts 342°
2026-05-06 18:32 47.15334 11.44468 5363 ft 105 kts 335°
2026-05-06 18:33 47.15939 11.43994 5303 ft 94 kts 326°
2026-05-06 18:33 47.16484 11.43506 5278 ft 90 kts 328°
2026-05-06 18:33 47.17045 11.43009 5246 ft 97 kts 324°
2026-05-06 18:33 47.17605 11.42452 5254 ft 98 kts 324°
2026-05-06 18:34 47.18175 11.41920 5328 ft 99 kts 311°
2026-05-06 18:34 47.18092 11.41195 5241 ft 81 kts 176°
2026-05-06 18:34 47.18062 11.41952 5150 ft 108 kts 38°
2026-05-06 18:34 47.18670 11.41532 5133 ft 110 kts 274°
2026-05-06 18:35 47.18254 11.40965 5189 ft 95 kts 160°
2026-05-06 18:35 47.18265 11.41817 5160 ft 112 kts 33°
2026-05-06 18:35 47.18909 11.41386 5141 ft 110 kts 279°
2026-05-06 18:35 47.18551 11.40775 5126 ft 95 kts 165°
2026-05-06 18:36 47.18377 11.41603 5139 ft 104 kts 58°
2026-05-06 18:36 47.19035 11.41549 5172 ft 108 kts 295°
2026-05-06 18:36 47.18732 11.40884 5205 ft 91 kts 170°
2026-05-06 18:36 47.18538 11.41658 5250 ft 108 kts 60°
2026-05-06 18:37 47.19249 11.41575 5077 ft 126 kts 295°
2026-05-06 18:37 47.19212 11.40868 5180 ft 99 kts 222°
2026-05-06 18:37 47.18436 11.41032 5124 ft 95 kts 132°
2026-05-06 18:37 47.18396 11.41960 5220 ft 99 kts 62°
2026-05-06 18:38 47.19031 11.42098 5282 ft 102 kts 316°
2026-05-06 18:38 47.18949 11.41381 5371 ft 83 kts 184°
2026-05-06 18:38 47.18425 11.41801 5352 ft 95 kts 122°
2026-05-06 18:38 47.18656 11.42709 5293 ft 116 kts 31°
2026-05-06 18:39 47.19315 11.42375 5399 ft 105 kts 277°
2026-05-06 18:39 47.18872 11.41711 5220 ft 108 kts 184°
2026-05-06 18:39 47.18269 11.42230 5148 ft 110 kts 114°
2026-05-06 18:40 47.19104 11.42153 5262 ft 108 kts 245°
2026-05-06 18:40 47.18497 11.41911 5036 ft 112 kts 136°
2026-05-06 18:40 47.18871 11.42561 5002 ft 121 kts 332°
2026-05-06 18:40 47.19489 11.41862 5200 ft 108 kts 317°
2026-05-06 18:41 47.20073 11.41204 5370 ft 106 kts 321°
2026-05-06 18:41 47.20670 11.40557 5449 ft 112 kts 322°
2026-05-06 18:41 47.21349 11.39790 5157 ft 135 kts 315°
2026-05-06 18:41 47.22045 11.38751 4812 ft 144 kts 311°
2026-05-06 18:42 47.22736 11.37742 4675 ft 138 kts 313°
2026-05-06 18:42 47.23424 11.36787 4575 ft 134 kts 312°
2026-05-06 18:42 47.24027 11.35884 4764 ft 116 kts 311°
2026-05-06 18:42 47.24616 11.34994 4768 ft 119 kts 310°
2026-05-06 18:43 47.25180 11.34112 4807 ft 120 kts 310°
2026-05-06 18:43 47.25771 11.33172 4700 ft 128 kts 309°
2026-05-06 18:43 47.26301 11.32231 4669 ft 125 kts 304°
2026-05-06 18:43 47.26734 11.31203 4803 ft 113 kts 295°
2026-05-06 18:44 47.27103 11.30248 5051 ft 103 kts 298°
2026-05-06 18:44 47.27469 11.29429 5400 ft 90 kts 299°
2026-05-06 18:44 47.27831 11.28772 5766 ft 83 kts 310°
2026-05-06 18:44 47.28223 11.27975 5667 ft 108 kts 297°
2026-05-06 18:45 47.28679 11.27071 5673 ft 110 kts 306°
2026-05-06 18:45 47.29134 11.26135 5672 ft 113 kts 289°
2026-05-06 18:45 47.29452 11.25210 6003 ft 94 kts 309°
2026-05-06 18:45 47.29765 11.24739 6008 ft 100 kts 309°
2026-05-06 18:46 47.30298 11.23992 6395 ft 76 kts 313°
2026-05-06 18:46 47.30422 11.23147 6449 ft 87 kts 272°
2026-05-06 18:46 47.30722 11.22452 6549 ft 93 kts 327°
2026-05-06 18:46 47.31354 11.21904 6429 ft 112 kts 328°
2026-05-06 18:47 47.32066 11.21363 6326 ft 116 kts 331°
2026-05-06 18:47 47.32738 11.20722 6330 ft 110 kts 326°
2026-05-06 18:47 47.33380 11.20034 6230 ft 116 kts 319°
2026-05-06 18:47 47.33887 11.19094 6150 ft 119 kts 304°
2026-05-06 18:48 47.34343 11.18102 6119 ft 119 kts 306°
2026-05-06 18:48 47.34806 11.17119 6110 ft 115 kts 302°
2026-05-06 18:48 47.35187 11.16081 6115 ft 111 kts 297°
2026-05-06 18:48 47.35520 11.15076 6223 ft 102 kts 297°
2026-05-06 18:49 47.35807 11.14199 6434 ft 91 kts 295°
2026-05-06 18:49 47.36060 11.13354 6589 ft 87 kts 292°
2026-05-06 18:49 47.36281 11.12562 6786 ft 81 kts 290°
2026-05-06 18:49 47.36491 11.11781 6942 ft 83 kts 289°
2026-05-06 18:50 47.36686 11.11024 7096 ft 82 kts 289°
2026-05-06 18:50 47.36837 11.10189 7282 ft 80 kts 283°
2026-05-06 18:50 47.36975 11.09400 7421 ft 85 kts 283°
2026-05-06 18:50 47.37126 11.08574 7628 ft 82 kts 279°
2026-05-06 18:51 47.37275 11.07752 7806 ft 82 kts 281°
2026-05-06 18:51 47.37433 11.06916 7963 ft 85 kts 281°
2026-05-06 18:51 47.37602 11.06105 8156 ft 84 kts 279°
2026-05-06 18:51 47.37712 11.05267 8373 ft 82 kts 264°
2026-05-06 18:52 47.37645 11.04439 8575 ft 80 kts 253°
2026-05-06 18:52 47.37586 11.03640 8788 ft 81 kts 260°
2026-05-06 18:52 47.37618 11.03082 8916 ft 82 kts 266°
2026-05-06 18:52 47.37674 11.02245 9088 ft 85 kts 263°
2026-05-06 18:53 47.37744 11.01103 9353 ft 83 kts 274°
2026-05-06 18:53 47.37920 11.00236 9488 ft 89 kts 284°
2026-05-06 18:53 47.38089 10.99690 9630 ft 88 kts 287°
2026-05-06 18:53 47.38388 10.98864 9755 ft 94 kts 291°
2026-05-06 18:54 47.38769 10.98055 9813 ft 107 kts 297°
2026-05-06 18:54 47.39192 10.97068 9734 ft 118 kts 300°
2026-05-06 18:54 47.39750 10.96052 9188 ft 146 kts 307°
2026-05-06 18:54 47.40498 10.94949 8665 ft 148 kts 310°
2026-05-06 18:55 47.41219 10.93845 8117 ft 151 kts 312°
2026-05-06 18:55 47.41956 10.92786 7752 ft 146 kts 312°
2026-05-06 18:55 47.42644 10.91852 7728 ft 129 kts 322°
2026-05-06 18:55 47.43359 10.91077 7602 ft 126 kts 320°
2026-05-06 18:56 47.43994 10.90325 7425 ft 130 kts 319°
2026-05-06 18:56 47.44687 10.89480 7310 ft 128 kts 318°
2026-05-06 18:56 47.45380 10.88611 7022 ft 136 kts 316°
2026-05-06 18:56 47.46066 10.87701 6883 ft 131 kts 316°
2026-05-06 18:57 47.46712 10.86793 6729 ft 126 kts 312°
2026-05-06 18:57 47.47315 10.85861 6513 ft 124 kts 311°
2026-05-06 18:57 47.47847 10.84887 6407 ft 120 kts 304°
2026-05-06 18:57 47.48348 10.83936 6341 ft 116 kts 310°
2026-05-06 18:58 47.48889 10.83111 6305 ft 110 kts 316°
2026-05-06 18:58 47.49445 10.82353 6266 ft 107 kts 317°
2026-05-06 18:58 47.49983 10.81680 6307 ft 99 kts 315°
2026-05-06 18:58 47.50359 10.80875 6331 ft 94 kts 289°
2026-05-06 18:59 47.50594 10.80021 6378 ft 93 kts 285°
2026-05-06 18:59 47.50853 10.79160 6273 ft 97 kts 286°
2026-05-06 18:59 47.51081 10.78263 6178 ft 91 kts 275°
2026-05-06 18:59 47.51128 10.77322 6293 ft 91 kts 271°
2026-05-06 19:00 47.51299 10.76388 6237 ft 103 kts 290°
2026-05-06 19:00 47.51640 10.75462 6180 ft 102 kts 292°
2026-05-06 19:00 47.51997 10.74499 6076 ft 111 kts 294°
2026-05-06 19:00 47.52379 10.73506 5961 ft 113 kts 294°
2026-05-06 19:01 47.52750 10.72569 6126 ft 95 kts 293°
2026-05-06 19:01 47.53103 10.71689 6059 ft 101 kts 293°
2026-05-06 19:01 47.53535 10.70860 5955 ft 109 kts 302°
2026-05-06 19:01 47.54019 10.69907 5587 ft 119 kts 299°
2026-05-06 19:02 47.54504 10.68925 5349 ft 119 kts 301°
2026-05-06 19:02 47.54929 10.68034 5187 ft 115 kts 298°
2026-05-06 19:02 47.55424 10.67022 4892 ft 115 kts 296°
2026-05-06 19:02 47.55716 10.65886 4543 ft 114 kts 283°
2026-05-06 19:03 47.56013 10.65023 4846 ft 87 kts 300°
2026-05-06 19:03 47.56390 10.64320 4927 ft 88 kts 300°
2026-05-06 19:03 47.56739 10.63558 4829 ft 100 kts 296°
2026-05-06 19:03 47.57114 10.62625 4675 ft 104 kts 296°
2026-05-06 19:04 47.57502 10.61740 4660 ft 97 kts 300°
2026-05-06 19:04 47.57932 10.60988 4667 ft 99 kts 306°
2026-05-06 19:04 47.58405 10.60197 4568 ft 103 kts 305°
2026-05-06 19:04 47.58873 10.59418 4574 ft 100 kts 305°
2026-05-06 19:05 47.59336 10.58657 4598 ft 98 kts 305°
2026-05-06 19:05 47.59730 10.57798 4399 ft 108 kts 292°
2026-05-06 19:05 47.60068 10.56804 4281 ft 108 kts 295°
2026-05-06 19:05 47.60428 10.55857 4247 ft 105 kts 294°
2026-05-06 19:06 47.60731 10.54876 4164 ft 103 kts 283°
2026-05-06 19:06 47.60876 10.53960 4227 ft 84 kts 279°
2026-05-06 19:06 47.61034 10.53223 4176 ft 68 kts 288°
2026-05-06 19:06 47.61237 10.52613 4093 ft 66 kts 292°
2026-05-06 19:07 47.61484 10.52000 4063 ft 70 kts 289°
2026-05-06 19:07 47.61689 10.51349 4030 ft 68 kts 281°
2026-05-06 19:07 47.61849 10.50772 4116 ft 51 kts 274°
2026-05-06 19:07 47.61912 10.50244 4066 ft 56 kts 277°
2026-05-06 19:08 47.62091 10.49693 4142 ft 61 kts 282°
2026-05-06 19:08 47.62229 10.49095 4238 ft 64 kts 278°
2026-05-06 19:08 47.62391 10.48418 4249 ft 76 kts 279°
2026-05-06 19:08 47.62563 10.47657 4299 ft 78 kts 284°
2026-05-06 19:09 47.62822 10.46945 4374 ft 82 kts 291°
2026-05-06 19:09 47.63139 10.46214 4279 ft 89 kts 292°
2026-05-06 19:09 47.63517 10.45573 4391 ft 85 kts 311°
2026-05-06 19:09 47.63984 10.44970 4280 ft 91 kts 301°
2026-05-06 19:10 47.64353 10.44254 4331 ft 80 kts 299°
2026-05-06 19:10 47.64735 10.43606 4223 ft 84 kts 297°
2026-05-06 19:10 47.65089 10.42941 4238 ft 84 kts 305°
2026-05-06 19:10 47.65496 10.42235 4063 ft 96 kts 294°
2026-05-06 19:11 47.65873 10.41549 3980 ft 80 kts 302°
2026-05-06 19:11 47.66205 10.40930 3740 ft 76 kts 282°
2026-05-06 19:11 47.66421 10.40338 3843 ft 55 kts 297°
2026-05-06 19:11 47.66681 10.39868 3774 ft 58 kts 294°
2026-05-06 19:12 47.66897 10.39389 3737 ft 57 kts 291°
2026-05-06 19:12 47.67128 10.38946 3770 ft 52 kts 288°
2026-05-06 19:12 47.67330 10.38468 3717 ft 58 kts 290°
2026-05-06 19:12 47.67579 10.38006 3697 ft 66 kts 311°
2026-05-06 19:13 47.67995 10.37569 3603 ft 74 kts 323°
2026-05-06 19:13 47.68512 10.37384 3518 ft 73 kts 335°
2026-05-06 19:13 47.68974 10.37238 3463 ft 64 kts 330°
2026-05-06 19:13 47.69391 10.37032 3392 ft 64 kts 334°
2026-05-06 19:14 47.69815 10.36859 3384 ft 61 kts 332°
2026-05-06 19:14 47.70248 10.36709 3406 ft 66 kts 331°
2026-05-06 19:14 47.70691 10.36534 3423 ft 67 kts 330°
2026-05-06 19:14 47.70871 10.36089 3286 ft 53 kts 248°
2026-05-06 19:15 47.70748 10.35667 3197 ft 41 kts 253°
2026-05-06 19:15 47.70659 10.35224 3052 ft 48 kts 252°
2026-05-06 19:15 47.70573 10.34814 3054 ft 41 kts 245°
2026-05-06 19:15 47.70469 10.34436 2984 ft 40 kts 249°
2026-05-06 19:16 47.70370 10.34082 2879 ft 38 kts 226°
2026-05-06 19:16 47.70166 10.33844 2756 ft 36 kts 218°
2026-05-06 19:16 47.69888 10.33643 2633 ft 41 kts 227°
2026-05-06 19:16 47.69592 10.33626 2446 ft 62 kts 146°
2026-05-06 19:17 47.69249 10.33810 2371 ft 47 kts 171°
2026-05-06 19:17 47.69021 10.33934 2364 ft 25 kts 71°
2026-05-06 19:17 47.69128 10.33956 2363 ft 11 kts 284°
2026-05-06 19:17 47.69142 10.33891 2365 ft 8 kts 323°
2026-05-06 19:18 47.69215 10.33865 2367 ft 15 kts 350°
2026-05-06 19:18 47.69294 10.33861 2367 ft 4 kts 62°
2026-05-06 19:18 47.69317 10.33987 2365 ft 15 kts 75°
2026-05-06 19:18 47.69340 10.34097 2368 ft 14 kts 71°
2026-05-06 19:19 47.69364 10.34176 2369 ft 7 kts 37°
2026-05-06 19:19 47.69385 10.34183 2368 ft 0 kts